User: anonymous   Login
Location: Unspecified
(0.0000°N, 0.0000°E)
Time: 01:49:05
(UTC+00:00)
Language:

KKS-1 - Orbit

View from above orbital plane
View from above orbital plane
View from above satellite
View from above satellite

Ground track
Ground track

The orbit data is extracted from the following two-line orbital elements,

1 33499U 09002H   19345.11474889  .00000081  00000-0  19954-4 0  9994
2 33499  98.3339 189.3057 0009448  15.8423 344.3079 14.75486880585094
Epoch (UTC): 11 December 2019 02:45:14
Eccentricity: 0.0009448
inclination: 98.3339°
perigee height: 637 km
apogee height: 650 km
right ascension of ascending node: 189.3057°
argument of perigee: 15.8423°
revolutions per day: 14.75486880
mean anomaly at epoch: 344.3079°
orbit number at epoch: 58509

The dashed part of the orbit path shows where the satellite is in the earth's shadow,  

DLR